RH
85 85 83 81 83 84 84 83 85 86 83 81 81 84 84 84 85 92 88 87 87 84 83 80 80 79 73 47 38 53 61 52 51 49 42 44 45 43 42 40 41 48 44 38 42 42 45
79 78 78 76 76 76 76 76 80 81 80 79 78 78 83 82 81 84 89 89 87 85 84 82 80 78 61 25 31 53 42 42 42 42 43 42 41 40 41 41 40 43 44 45 46 46 48
75 75 75 74 74 74 74 74 76 77 77 77 78 80 81 81 83 83 84 85 86 84 82 79 78 81 66 23 41 45 39 42 41 40 39 39 39 43 45 45 42 46 47 46 44 46 48
73 73 74 74 73 73 73 75 76 76 75 75 76 76 76 79 80 82 85 87 88 84 78 78 79 85 31 36 46 40 38 40 41 40 42 42 42 42 46 44 40 51 56 56 44 57 49
73 72 72 73 73 73 72 73 74 75 75 76 76 76 75 76 82 83 82 88 83 75 75 79 78 62 35 45 46 42 37 37 41 42 44 29 45 49 52 52 42 46 38 45 37 53 56
72 72 72 72 72 72 73 73 74 75 76 77 77 77 77 79 83 82 86 84 68 71 78 74 44 60 39 36 44 42 43 40 43 44 46 44 57 65 67 44 35 34 54 53 43 45 62
70 70 70 72 73 73 72 74 76 77 76 77 78 79 81 83 83 81 88 52 56 53 55 42 41 35 38 43 43 46 43 42 44 44 43 53 48 54 44 48 32 30 40 39 39 38 57
70 70 73 74 74 73 73 73 74 75 74 76 78 83 82 84 82 85 64 62 74 70 92 62 59 51 46 43 45 45 38 41 48 49 50 56 56 34 40 52 55 59 61 51 44 41 55
71 70 71 74 75 76 76 76 75 74 75 76 77 80 81 84 84 89 72 70 72 80 94 66 57 53 48 44 47 45 41 44 45 50 55 50 37 43 38 44 46 59 56 49 46 45 50
67 66 66 71 72 73 74 76 76 77 78 81 80 77 79 82 80 92 74 74 86 78 91 53 52 51 47 49 51 46 45 42 52 47 51 53 44 37 44 42 45 50 43 42 49 54 58
65 65 67 70 71 72 72 73 74 76 82 85 84 79 77 78 94 95 89 92 81 71 70 48 51 43 52 42 48 52 47 50 51 50 48 42 46 48 50 44 44 44 41 47 50 54 61
68 65 66 66 66 67 71 75 74 74 80 83 86 83 83 87 97 90 95 85 70 60 67 58 53 54 53 56 52 53 51 47 50 57 59 50 51 45 39 39 42 36 40 47 62 53 69
65 65 65 63 66 66 66 72 74 72 78 83 84 84 85 84 87 92 95 70 54 66 39 54 64 59 61 54 56 56 56 61 57 62 64 55 53 51 44 49 46 41 51 74 67 79 58
68 67 67 68 67 67 67 72 73 72 76 84 86 85 85 87 94 93 87 68 57 41 54 66 64 65 66 62 58 62 64 64 63 57 67 75 70 52 46 44 47 51 52 70 68 73 58
71 71 70 70 68 68 69 69 72 72 78 83 85 96 96 92 83 81 85 92 41 40 68 76 59 80 74 67 72 72 72 67 59 56 60 72 65 49 51 47 44 52 56 48 53 63 76
68 70 72 72 69 70 71 70 69 70 75 79 99 95 96 88 84 91 92 90 73 71 70 72 74 72 80 78 77 81 79 69 65 70 75 78 86 69 52 51 51 47 44 63 66 79 72
68 68 70 71 72 72 74 73 69 70 71 78 96 99 74 89 77 93 97 88 81 66 68 76 85 81 88 91 88 87 76 66 72 75 80 84 82 78 74 66 57 59 61 57 57 63 69
68 68 70 70 76 76 74 76 70 70 70 87 98 97 73 79 92 97 99 89 78 74 76 75 85 84 87 83 83 82 78 58 74 76 85 88 90 95 85 67 67 62 61 55 71 75 87
68 69 70 74 78 79 76 74 74 71 69 95 97 97 87 91 98 97 82 92 84 83 78 74 86 83 82 84 97 89 85 75 70 74 81 82 92 96 67 70 72 84 92 95 95 97 93
64 68 69 75 77 77 78 78 78 77 74 95 98 99 92 97 93 89 89 79 82 78 83 80 83 82 88 97 90 97 99 79 75 72 71 76 96 90 83 62 70 74 68 77 84 91 78
66 65 68 71 72 74 77 81 77 77 76 94 98 95 88 97 91 85 92 97 92 94 84 90 89 93 89 93 95 95 92 90 84 79 86 96 97 97 93 90 90 87 89 85 96 87 92
67 67 68 69 70 71 75 81 77 74 77 100 99 97 94 99 97 94 90 84 71 68 85 86 97 79 96 99 93 97 98 91 98 83 83 98 96 96 97 86 88 90 75 78 86 87 90
66 68 68 68 71 73 77 78 79 78 80 99 98 96 94 84 96 99 93 86 77 81 79 73 74 89 83 91 85 88 81 82 82 92 93 98 98 97 92 83 90 94 92 89 89 93 98
69 68 67 68 69 71 75 79 78 79 80 97 96 97 100 95 93 83 87 84 92 86 88 78 96 98 89 95 92 93 97 97 99 97 88 96 98 98 97 97 96 92 96 94 94 93 94
70 70 70 70 69 69 71 74 76 76 74 95 97 99 100 97 85 88 89 92 92 90 95 98 92 90 99 99 99 93 94 84 86 95 97 97 96 97 97 99 93 90 93 96 94 98 98
72 73 73 72 72 72 72 72 71 72 77 90 94 96 100 99 94 75 86 91 96 90 86 95 96 100 100 99 98 97 96 85 86 89 95 98 97 98 97 96 95 96 89 96 96 97 93
73 71 73 73 72 75 71 72 73 72 74 86 96 95 100 100 99 88 97 92 91 99 94 94 98 100 100 98 98 94 94 88 96 92 98 98 98 94 92 96 98 96 91 94 96 95 91
72 71 73 75 74 75 73 74 73 72 74 89 94 92 99 100 99 91 86 97 96 97 97 94 99 99 98 98 97 96 97 95 97 93 97 95 98 96 96 97 97 85 87 93 96 92 93
71 73 77 76 72 74 72 73 67 68 73 80 98 96 93 100 100 99 99 99 98 93 98 100 96 97 97 98 99 96 98 100 96 95 92 96 96 96 96 96 96 95 95 95 93 91 88
Wind_Speed
15 14 14 14 15 15 16 17 17 18 19 19 20 20 21 23 24 23 24 25 23 21 18 16 11 7 2 0 11 2 6 6 4 3 3 4 4 5 5 5 2 4 4 4 6 5 5
12 13 14 14 15 16 17 17 18 19 20 21 21 22 22 24 24 24 25 26 26 24 21 15 7 3 3 4 3 6 7 5 4 4 3 4 5 5 4 4 5 2 4 6 5 4 4
14 15 16 17 17 17 18 18 18 19 20 20 21 21 22 23 24 25 25 25 24 22 20 8 5 3 2 14 2 3 4 2 3 4 4 4 3 4 1 4 3 3 7 6 7 5 7
16 16 16 17 17 17 17 18 18 19 19 21 22 22 23 23 25 25 26 27 22 20 9 2 8 2 9 2 1 3 4 2 2 3 2 3 4 4 3 3 7 3 0 4 1 5 4
16 16 16 17 17 17 18 18 18 19 20 20 21 23 24 25 25 25 27 28 22 4 2 8 3 3 9 1 1 4 4 4 4 2 1 2 3 2 3 4 5 3 6 6 10 8 2
16 16 17 17 18 18 18 18 18 19 20 21 22 23 25 24 25 26 29 27 8 2 2 3 1 1 4 3 1 2 2 4 3 4 3 3 4 3 3 4 8 7 6 6 7 2 4
15 15 15 16 17 18 19 19 19 19 20 21 22 22 24 25 25 28 14 7 8 4 5 7 5 6 2 3 1 0 1 4 3 4 5 1 3 9 14 13 2 2 3 7 4 4 4
16 16 16 16 17 17 18 19 19 19 20 22 23 23 25 26 27 24 4 6 3 4 13 10 9 7 5 1 3 3 5 6 5 6 4 3 8 10 5 4 6 3 5 14 9 6 6
16 17 18 18 18 18 17 17 18 19 19 20 20 20 23 26 28 5 4 4 5 1 4 8 5 3 2 6 6 6 9 4 4 6 7 9 6 5 6 4 5 4 7 7 12 5 5
16 17 17 18 19 19 19 20 20 20 19 19 21 21 22 26 6 5 2 7 6 1 3 8 2 2 2 2 2 2 6 4 3 7 6 7 5 8 6 7 10 6 8 13 6 3 5
16 16 17 17 19 19 19 19 19 20 19 17 19 21 20 17 5 4 5 7 4 2 7 0 1 2 1 3 3 3 2 2 6 6 6 8 5 6 5 8 8 10 5 6 4 4 3
17 17 17 17 18 19 20 19 19 20 20 18 19 21 22 4 3 5 7 6 2 4 10 1 0 1 1 2 2 1 2 2 1 3 3 8 2 4 8 5 8 3 3 4 4 3 5
15 16 17 18 18 18 19 19 18 20 20 20 20 20 15 3 4 5 5 3 5 4 6 5 4 6 5 3 2 3 3 3 5 1 4 3 5 4 2 1 3 4 5 3 3 0 8
16 16 17 17 18 18 19 19 17 19 21 20 19 19 5 3 4 4 2 4 5 3 3 3 4 5 4 3 1 1 1 3 3 3 2 3 6 4 2 4 5 5 7 6 7 4 3
17 17 17 17 18 18 17 18 18 19 19 20 17 4 4 3 5 2 0 2 8 5 1 5 6 2 4 2 1 1 4 4 2 6 7 3 5 3 1 2 0 2 4 1 1 1 1
18 19 19 18 18 18 17 17 17 18 18 20 5 4 4 5 3 3 2 6 5 3 2 2 1 1 3 4 4 5 3 2 1 1 1 1 5 2 3 0 1 5 3 1 2 4 6
20 19 19 19 18 17 17 16 16 17 18 17 3 5 4 5 2 2 4 7 5 5 3 5 3 4 4 3 2 2 5 3 2 2 2 1 3 4 3 2 4 1 2 1 2 4 6
20 21 21 20 18 17 17 16 14 13 15 6 2 4 3 3 2 3 3 4 4 4 1 3 3 6 6 3 5 6 8 10 2 2 3 2 2 5 9 6 3 2 3 3 6 4 1
22 22 23 20 17 17 17 17 15 13 8 2 3 4 3 2 5 4 3 5 3 3 3 3 4 6 3 3 4 5 3 2 3 2 5 4 2 3 6 4 4 3 2 3 2 1 6
22 23 23 21 18 18 19 19 16 13 10 2 3 5 4 1 2 4 4 8 6 3 5 4 4 4 3 4 6 6 4 4 5 6 5 3 5 7 9 4 2 6 5 2 4 6 7
23 23 23 22 21 20 20 21 16 14 12 3 3 4 3 3 3 6 2 4 3 3 3 1 4 4 4 7 5 9 5 4 3 4 3 5 5 6 8 8 4 11 12 11 10 12 10
24 24 24 23 23 22 20 20 16 15 13 4 3 3 2 2 3 5 7 7 16 16 7 6 6 8 7 6 5 2 4 2 3 3 6 4 4 5 7 10 10 13 14 13 11 10 9
24 24 25 24 24 24 22 21 20 16 11 3 3 3 3 6 5 4 5 9 12 8 9 14 12 6 11 11 10 10 8 9 8 5 4 4 3 4 9 2 2 6 6 2 5 5 2
24 25 25 25 23 23 23 23 21 18 14 4 4 2 5 6 8 10 6 9 14 15 16 10 3 7 6 2 3 3 7 11 10 13 11 6 4 3 3 1 5 1 3 3 11 7 5
26 27 26 24 23 23 23 22 23 19 19 7 3 4 3 5 7 6 12 11 11 13 11 10 11 4 4 2 3 5 4 6 5 9 10 11 8 5 4 4 2 3 3 3 2 3 3
27 26 26 23 22 21 21 21 23 22 17 10 7 5 4 3 8 13 5 6 6 9 8 5 0 2 4 4 3 4 4 4 5 4 2 5 9 6 2 4 7 3 3 5 2 2 6
24 24 23 21 22 20 21 21 21 21 19 7 4 8 5 3 2 4 5 4 3 4 7 1 3 4 3 3 3 5 5 2 5 4 4 2 3 12 9 5 2 3 9 4 4 3 9
21 22 22 21 20 19 19 19 20 20 20 6 5 7 6 3 4 7 9 8 5 4 8 3 2 2 2 4 3 2 4 6 2 3 4 6 3 2 2 3 5 14 2 1 4 4 7
19 20 18 18 16 16 18 19 19 19 19 9 7 5 8 3 3 1 3 6 6 8 5 5 4 3 2 2 2 1 2 3 4 5 6 2 3 2 4 4 3 9 10 5 6 7 8
Wind_Direction
30 22 14 13 10 6 3 1 359 355 353 351 351 347 344 341 338 332 328 326 323 320 314 308 293 288 286 199 247 206 130 110 99 100 129 140 149 162 202 207 246 221 270 237 256 257 241
18 16 13 10 7 4 2 0 357 354 352 350 349 344 342 339 337 331 326 324 323 321 318 309 281 228 160 252 204 166 147 132 140 141 156 151 194 202 237 230 175 232 252 268 275 243 239
18 13 9 5 3 2 358 356 355 352 349 346 344 342 339 335 331 327 323 319 316 314 312 297 204 210 175 236 76 149 143 182 163 156 168 195 190 171 180 287 285 291 312 310 227 219 229
9 7 5 2 0 359 356 354 352 350 347 345 342 340 337 333 330 325 320 315 313 306 298 196 162 181 242 267 116 168 164 173 161 176 182 184 162 179 193 273 348 339 23 311 328 139 251
5 4 2 359 357 355 353 352 350 348 347 345 343 341 337 334 329 325 319 310 312 299 140 143 133 175 265 96 192 221 159 169 150 138 141 104 110 152 59 102 352 347 248 227 308 206 112
7 4 2 359 355 353 351 350 348 347 347 346 345 343 338 335 330 326 321 306 285 83 139 230 278 16 268 277 218 142 183 140 143 123 76 100 56 100 43 117 227 229 228 247 243 217 206
356 356 355 353 352 351 349 347 346 346 346 345 344 342 337 334 331 327 334 350 10 352 22 233 215 247 291 306 145 123 140 107 86 76 185 209 124 218 208 206 161 187 215 260 265 234 250
350 347 345 343 343 344 344 345 344 342 342 342 342 340 338 335 330 325 354 60 52 259 301 259 267 271 260 189 323 204 130 155 154 197 129 44 234 245 229 215 246 281 291 274 282 255 198
346 346 346 346 345 340 335 334 335 335 337 337 339 339 337 334 325 27 357 47 320 245 279 299 233 236 212 138 204 235 152 150 172 165 186 181 203 91 163 192 213 225 223 254 251 313 252
343 344 343 343 341 338 337 336 334 329 329 332 335 339 339 339 36 331 356 322 328 167 338 278 274 260 159 142 239 193 190 153 194 199 182 226 251 219 184 225 167 249 223 249 259 38 251
340 340 340 343 341 338 336 333 332 330 328 326 328 332 336 337 269 324 298 323 322 51 344 272 247 317 337 198 118 246 222 127 195 189 139 245 193 191 185 209 157 219 164 174 186 196 344
339 338 335 336 336 333 335 338 340 337 329 326 324 326 332 338 295 258 315 316 58 46 255 307 28 308 287 209 231 123 201 43 60 183 232 243 282 221 212 198 189 111 129 76 62 117 265
330 330 330 330 332 332 333 334 338 334 333 333 323 322 324 277 260 313 322 23 40 164 344 346 337 7 338 281 271 188 189 198 196 140 243 298 224 267 159 183 180 151 85 316 301 190 233
318 320 321 326 327 329 335 333 340 337 336 334 327 322 294 230 289 316 36 62 193 239 269 338 335 304 234 15 267 315 290 266 209 69 105 215 309 179 176 214 198 184 166 175 231 211 254
311 309 311 315 317 320 329 332 336 337 336 337 333 320 314 269 312 310 345 154 218 213 279 357 316 311 303 261 312 349 218 224 201 177 188 181 263 287 295 330 131 156 195 187 276 143 63
315 316 311 307 312 312 317 322 329 331 334 336 326 323 277 307 347 63 156 246 262 244 354 53 220 302 288 312 346 22 275 243 133 87 247 203 287 284 297 41 213 173 179 85 32 279 246
311 312 311 309 304 308 308 310 320 329 334 338 19 339 264 322 132 61 216 230 270 247 208 201 216 263 241 276 233 253 262 290 235 171 25 107 181 283 350 192 194 266 245 222 181 202 255
313 312 308 303 307 302 303 300 306 316 332 42 355 305 293 347 350 202 227 221 316 284 356 275 217 230 226 240 268 237 233 209 217 159 185 197 173 250 227 245 39 1 298 215 225 253 282
311 309 308 303 301 300 296 296 288 297 322 343 259 253 312 91 232 236 260 267 265 269 254 257 254 208 196 239 255 218 286 8 13 193 182 184 238 334 318 22 12 109 113 101 121 201 234
307 305 304 305 302 302 298 290 285 285 289 124 295 298 302 218 202 211 265 267 254 254 255 258 263 255 280 260 238 264 233 246 194 205 172 81 203 195 237 220 90 285 252 187 177 261 276
307 306 304 302 303 304 300 294 283 271 264 174 196 249 211 289 255 259 260 331 302 303 290 298 303 228 269 281 232 230 259 294 260 289 320 195 217 204 246 256 257 261 262 263 249 246 251
306 306 306 307 305 302 300 292 288 275 262 221 225 240 197 252 289 252 228 230 260 264 223 245 227 253 222 228 277 279 331 248 304 272 186 183 258 192 266 234 226 254 266 254 246 262 269
304 302 301 301 300 297 298 291 287 280 259 229 210 256 223 236 211 221 228 235 240 232 236 237 249 233 249 240 234 255 247 252 235 212 229 201 223 201 258 210 78 306 250 171 100 67 53
301 299 300 299 300 299 300 296 290 280 265 217 202 224 224 241 220 241 236 243 259 253 254 266 225 225 229 69 333 304 269 253 246 241 234 235 210 234 242 105 225 47 38 76 99 88 31
296 295 295 298 302 305 300 299 303 296 285 247 198 204 221 250 232 239 249 251 256 249 261 262 252 248 139 141 246 268 313 345 258 241 229 225 236 245 222 186 108 194 44 63 126 131 10
299 298 297 300 299 298 299 295 295 299 298 284 252 216 194 238 222 229 232 224 260 279 283 224 203 227 185 222 190 233 226 212 290 342 212 199 231 233 173 234 219 64 16 12 15 276 11
307 305 301 296 293 294 297 302 299 296 298 273 268 225 231 262 209 137 195 242 199 286 291 258 171 209 200 192 218 230 241 184 231 196 186 196 206 222 224 232 106 322 308 292 136 239 329
317 312 310 300 302 300 310 305 300 301 301 279 269 216 234 234 200 210 192 207 227 217 263 256 235 181 179 216 229 223 202 217 160 220 194 169 201 202 149 208 222 342 78 12 351 325 324
326 327 322 316 312 309 308 304 305 299 303 285 273 197 218 208 264 285 353 6 301 251 240 188 232 184 196 157 208 224 255 181 189 221 20 105 348 58 24 86 60 50 67 22 6 350 346